Simultaneous Nadir Overpasses (SNOs) Predictions

Prediction of SNOs between NOAA-20 and NOAA-19 Satellite Orbit:

Table of predicted SNOs for the next 14.0 days since TLE Epoch: 11/20/2021
Index Date (NOAA-20) Time (NOAA-20) Lat,Lon (NOAA-20) SZA (NOAA-20 ) Date (NOAA-19) Time (NOAA-19) Lat,Lon (NOAA-19) SZA (NOAA-19 ) Distance(km) Time Diff (sec)
1 12/01/2021 05:05:46 -77.61, -99.39 79.92 12/01/2021 05:04:41 -77.60, -99.54 79.89 3.65 65
2 12/01/2021 05:56:32 77.63, 67.80 100.13 12/01/2021 05:55:35 77.61, 67.75 100.12 3.13 57
3 12/01/2021 06:47:16 -77.61,-124.79 79.90 12/01/2021 06:46:40 -77.65,-124.80 79.85 4.05 36
4 12/01/2021 07:38:02 77.64, 42.39 100.15 12/01/2021 07:37:34 77.65, 42.50 100.16 2.91 28
5 12/01/2021 08:28:47 -77.66,-150.40 79.82 12/01/2021 08:28:40 -77.66,-150.26 79.84 3.35 7
6 12/01/2021 09:19:32 77.65, 16.98 100.17 12/01/2021 09:19:34 77.66, 17.03 100.18 1.88 2
7 12/01/2021 10:10:17 -77.67,-175.80 79.81 12/01/2021 10:10:40 -77.66,-175.72 79.82 2.04 23
8 12/01/2021 11:01:02 77.65, -8.42 100.19 12/01/2021 11:01:34 77.67, -8.43 100.19 1.49 32
9 12/01/2021 11:51:47 -77.68, 158.79 79.79 12/01/2021 11:52:40 -77.67, 158.82 79.81 0.79 53
10 12/01/2021 12:42:32 77.66, -33.83 100.21 12/01/2021 12:43:34 77.67, -33.89 100.21 2.13 62
11 12/01/2021 13:33:26 -78.05, 131.54 79.29 12/01/2021 13:34:31 -78.02, 135.28 79.59 86.10 65



Historial Predications of SNOs between NOAA-20 and NOAA-19
